Regional Weather Roundup
Issued by NWS

Home | Current Version | Previous Version | Text Only | Print | Product List | Glossary Off
Versions: 1 2 3 4 5 6 7 8 9 10 11 12 13 14 15 16 17 18 19 20 21 22 23 24 25 26 27 28 29 30 31 32 33 34 35 36 37 38 39 40 41 42 43 44 45 46 47 48 49 50

000
ASUS43 KLSX 271407
RWRMO

WEATHER SUMMARY FOR MISSOURI
NATIONAL WEATHER SERVICE SPRINGFIELD MO
900 AM CDT THU APR 27 2017

NOTE: "FAIR" INDICATES FEW OR NO CLOUDS BELOW 12,000 FEET WITH NO
       SIGNIFICANT WEATHER AND/OR OBSTRUCTIONS TO VISIBILITY.
       CURRENT SKY AND/OR WEATHER CONDITIONS ARE NOT AVAILABLE FOR
       CHILLICOTHE AND FARMINGTON.

MOZ001>031-035>038-043-044-053-054-271500-
...NORTHERN AND WESTERN MISSOURI...

CITY           SKY/WX    TMP DP  RH WIND       PRES   REMARKS
KANSAS CTY INT MOSUNNY   47  34  60 W9        29.73R
KANSAS C DTWN  MOSUNNY   48  33  56 W9        29.74R
LEE`S SUMMIT   SUNNY     46  34  62 W13       29.74R
ST JOSEPH      PTSUNNY   46  36  68 W10       29.73R
CHILLICOTHE      N/A     45  34  65 NW9       29.72R
KIRKSVILLE     CLOUDY    42  35  76 W9        29.68R

$$
MOZ066>068-077>081-088>096-101>105-271500-
...SOUTHWEST MISSOURI...

CITY           SKY/WX    TMP DP  RH WIND       PRES   REMARKS
SPRINGFIELD    SUNNY     47  40  76 NW6       29.76S
JOPLIN         SUNNY     50  43  77 SW5       29.79R
BRANSON        MOSUNNY   46  39  76 NW9       29.78S

$$
MOZ032>034-039>042-045>050-055>058-069>072-271500-
...CENTRAL MISSOURI...

CITY           SKY/WX    TMP DP  RH WIND       PRES   REMARKS
COLUMBIA       CLOUDY    45  39  79 W10       29.73R
JEFFERSON CITY CLOUDY    47  36  65 W14       29.75R
ROLLA          CLOUDY    44  40  85 W12       29.73R
SEDALIA        CLOUDY    46  37  71 W10G21    29.76R
WHITEMAN AFB   PTSUNNY   46  40  82 W10       29.74R
OSAGE BEACH    CLOUDY    45  39  79 VRB7      29.77R

$$
MOZ051-052-059>065-271500-
...EAST CENTRAL MISSOURI...

CITY           SKY/WX    TMP DP  RH WIND       PRES   REMARKS
ST LOUIS INTL  CLOUDY    48  41  76 W15       29.71R
SPIRIT OF STL  CLOUDY    47  43  86 W12       29.72R
ST CHARLES     CLOUDY    47  42  83 W16       29.70R

$$
MOZ072>076-082>087-097>100-106>115-271500-
...SOUTH CENTRAL AND SOUTHEAST MISSOURI...

CITY           SKY/WX    TMP DP  RH WIND       PRES   REMARKS
CAPE GIRARDEAU CLOUDY    50  43  77 W13       29.76R
FARMINGTON     CLOUDY    45  41  86 W8        29.75R
POPLAR BLUFF   CLOUDY    51  43  74 W8        29.77R
WEST PLAINS    CLOUDY    47  40  76 NW12      29.77R

$$



USA.gov is the U.S. government's official web portal to all federal, state and local government web resources and services.